Miscellaneous Local Product
Issued by NWS Hastings, NE

Home | Current Version | Previous Version | Text Only | Print | Product List | Glossary Off
Versions: 1 2 3 4 5 6 7 8 9 10 11 12 13 14 15 16 17 18 19 20 21 22 23 24 25 26 27 28 29 30 31 32 33 34 35 36 37 38 39 40 41 42 43 44 45 46 47 48 49 50

000
AXUS43 KGID 231502
MISGRI

GID CWA HOURLY WEATHER ROUNDUP
NATIONAL WEATHER SERVICE HASTINGS NE
900 AM CST THU NOV 23 2017

NOTE: "FAIR" INDICATES FEW OR NO CLOUDS BELOW 12,000 FEET WITH NO
SIGNIFICANT WEATHER AND/OR OBSTRUCTIONS TO VISIBILITY.

...SOUTH CENTRAL NEBRASKA...

CITY           SKY/WX    TMP DP  RH WIND       PRES   REMARKS
GRAND ISLAND   SUNNY     45  38  76 W7        30.05S
KEARNEY        CLOUDY    44  36  73 W3        30.07R
HASTINGS       SUNNY     44  35  70 W5        30.06S
ORD            CLOUDY    38  35  89 CALM      30.03S
YORK           SUNNY     45  39  81 W6        30.05R
AURORA         SUNNY     46  38  75 W3        30.05R
LEXINGTON      CLOUDY    41  37  83 W5        30.07F
HOLDREGE       CLOUDY    45  38  77 W7        30.07S
HEBRON         SUNNY     43  34  70 CALM      30.06F

...NEBRASKA PANHANDLE...

CITY           SKY/WX    TMP DP  RH WIND       PRES   REMARKS
CHADRON        CLOUDY    36  33  89 CALM      30.04F
ALLIANCE       CLOUDY    36  35  96 W9        30.08S WCI  29
SCOTTSBLUFF    CLOUDY    38  35  89 CALM      30.11R
SIDNEY         CLOUDY    43  37  79 W6        30.14R

...WESTERN AND NORTH CENTRAL NEBRASKA...

CITY           SKY/WX    TMP DP  RH WIND       PRES   REMARKS
VALENTINE      CLOUDY    44  39  82 SW10      30.00S
AINSWORTH      SUNNY     47  41  78 W14       30.00F
ONEILL         CLOUDY    42  39  90 CALM      30.00S
BROKEN BOW     SUNNY     44  37  76 CALM      30.04F
IMPERIAL       CLOUDY    45  39  79 W7        30.11F
NORTH PLATTE   CLOUDY    39  37  92 W5        30.08F
MCCOOK         CLOUDY    43  39  86 W12       30.10S

...EASTERN NEBRASKA...

CITY           SKY/WX    TMP DP  RH WIND       PRES   REMARKS
NORFOLK        SUNNY     40  36  86 CALM      30.01S
SO SIOUX CITY  CLOUDY    36  31  82 NW6       30.02S WCI  31
TEKAMAH        CLOUDY    38  30  73 CALM      30.02S
COLUMBUS       SUNNY     39  33  79 CALM      30.04S
ALBION         SUNNY     44  38  78 CALM      30.02F
OMAHA EPPLEY   PTSUNNY   40  31  70 N3        30.03R
OFFUTT AFB     SUNNY     37  28  69 NW3       30.03R
MILLARD        SUNNY     40  33  76 CALM      30.03S
LINCOLN        SUNNY     43  33  68 CALM      30.06R
NEBRASKA CITY  SUNNY     45  35  67 NW6       30.03R
BEATRICE       SUNNY     41  32  71 W3        30.05R
FALLS CITY     SUNNY     43  31  62 CALM      30.03S

...NORTHERN KANSAS...

CITY           SKY/WX    TMP DP  RH WIND       PRES   REMARKS
GOODLAND       CLOUDY    49  39  68 W6        30.14F
HILL CITY      CLOUDY    45  40  82 W7        30.10S
NORTON         SUNNY     48  37  66 W10       30.08S
PHILLIPSBURG   SUNNY     45  36  70 W3        30.09S
SMITH CENTER   SUNNY     41  34  75 W7        30.08S
HAYS           SUNNY     48  39  71 NW8       30.09S
RUSSELL        SUNNY     45  39  79 W5        30.07S
CONCORDIA      SUNNY     46  33  60 NW6       30.07R
SALINA         CLOUDY    44  29  55 CALM      30.09R
TOPEKA         SUNNY     41  26  55 CALM      30.07S



USA.gov is the U.S. government's official web portal to all federal, state and local government web resources and services.